Weather History for Warroad, MN

Change the Weather History Date:

Wednesday, February 19, 2014

  Actual Average Record
Temperature  
Mean Temperature 17 °F -  
Max Temperature 26 °F 21 °F 43 °F (1954)
Min Temperature 8 °F 0 °F -48 °F (1966)
Degree Days  
Heating Degree Days 48    
Moisture  
Dew Point 14 °F    
Average Humidity 82    
Maximum Humidity 92    
Minimum Humidity 74    
Precipitation  
Precipitation 0.00 in - - ()
Sea Level Pressure  
Sea Level Pressure 29.63 in    
Wind  
Wind Speed 9 mph (ENE)    
Max Wind Speed 17 mph    
Max Gust Speed 21 mph    
Visibility 10 miles    
Events      
Averages and records for this station are not official NWS values.
T = Trace of Precipitation, MM = Missing Value Source: NWS Daily Summary

Daily Weather History Graph

Daily Weather History Graph

Search for Another Location

Airport:

Trip Planner

Search our weather history database for the weather conditions in past years. The results will help you decide how hot, cold, wet, or windy it might be!

Date:

Astronomy

Feb. 19, 2014 Rise Set
Actual Time 7:22 AM CST 5:48 PM CST
Civil Twilight 6:50 AM CST 6:21 PM CST
Nautical Twilight 6:13 AM CST 6:57 PM CST
Astronomical Twilight 5:36 AM CST 7:34 PM CST
Moon 11:12 PM CST (2/19) 9:02 AM CST (2/19)
Length of Visible Light 11h 31m
Length of Day
10h 26m
Waning Gibbous, 79% of the Moon is Illuminated
Feb 19
Waning Gibbous
Feb 22
Last Quarter
Mar 1
New
Mar 8
First Quarter
Mar 16
Full

Hourly Weather History & Observations

Time (CST) Temp. Windchill Dew Point Humidity Pressure Visibility Wind Dir Wind Speed Gust Speed Precip Events Conditions
12:14 AM 21.2 °F 8.9 °F 17.6 °F 86% 29.59 in 10.0 mi West 12.7 mph 20.7 mph N/A   Clear
12:34 AM 21.2 °F 9.5 °F 17.6 °F 86% 29.60 in 10.0 mi WSW 11.5 mph - N/A   Clear
12:54 AM 21.2 °F 8.9 °F 15.8 °F 80% 29.61 in 10.0 mi WSW 12.7 mph - N/A   Clear
1:14 AM 19.4 °F 7.2 °F 15.8 °F 86% 29.61 in 10.0 mi West 11.5 mph 16.1 mph N/A   Clear
1:34 AM 19.4 °F 7.9 °F 15.8 °F 86% 29.62 in 10.0 mi WSW 10.4 mph - N/A   Clear
1:54 AM 19.4 °F 9.5 °F 14.0 °F 80% 29.61 in 10.0 mi WSW 8.1 mph - N/A   Clear
2:14 AM 19.4 °F 10.4 °F 15.8 °F 86% 29.61 in 10.0 mi SW 6.9 mph - N/A   Clear
2:33 AM 17.6 °F 9.3 °F 14.0 °F 86% 29.62 in 10.0 mi SW 5.8 mph - N/A   Clear
2:54 AM 17.6 °F 8.2 °F 14.0 °F 86% 29.62 in 10.0 mi SW 6.9 mph - N/A   Clear
3:14 AM 17.6 °F 6.4 °F 12.2 °F 79% 29.61 in 10.0 mi SW 9.2 mph - N/A   Clear
3:33 AM 17.6 °F 6.4 °F 12.2 °F 79% 29.61 in 10.0 mi WSW 9.2 mph - N/A   Clear
3:54 AM 15.8 °F 5.1 °F 12.2 °F 86% 29.61 in 10.0 mi SW 8.1 mph - N/A   Clear
4:14 AM 15.8 °F 3.4 °F 12.2 °F 86% 29.61 in 10.0 mi WSW 10.4 mph - N/A   Clear
4:34 AM 17.6 °F 6.4 °F 12.2 °F 79% 29.63 in 10.0 mi WSW 9.2 mph - N/A   Clear
4:54 AM 15.8 °F 5.1 °F 12.2 °F 86% 29.63 in 10.0 mi WSW 8.1 mph - N/A   Clear
5:14 AM 15.8 °F 7.2 °F 10.4 °F 79% 29.62 in 10.0 mi WSW 5.8 mph - N/A   Clear
5:34 AM 14.0 °F 3.9 °F 10.4 °F 86% 29.62 in 10.0 mi WSW 6.9 mph - N/A   Clear
5:54 AM 14.0 °F 3.9 °F 10.4 °F 86% 29.63 in 10.0 mi West 6.9 mph - N/A   Clear
6:14 AM 12.2 °F 1.7 °F 8.6 °F 85% 29.64 in 10.0 mi West 6.9 mph - N/A   Clear
6:34 AM 12.2 °F 1.7 °F 8.6 °F 85% 29.65 in 10.0 mi WSW 6.9 mph - N/A   Clear
6:54 AM 12.2 °F 2.9 °F 8.6 °F 85% 29.64 in 10.0 mi WSW 5.8 mph - N/A   Clear
7:14 AM 10.4 °F 2.2 °F 8.6 °F 92% 29.64 in 10.0 mi WSW 4.6 mph - N/A   Clear
7:34 AM 10.4 °F 4.0 °F 6.8 °F 85% 29.65 in 10.0 mi WSW 3.5 mph - N/A   Clear
7:54 AM 8.6 °F 0.1 °F 5.0 °F 85% 29.64 in 7.0 mi SW 4.6 mph - N/A   Clear
8:14 AM 10.4 °F -1.5 °F 6.8 °F 85% 29.65 in 10.0 mi SSW 8.1 mph - N/A   Clear
8:34 AM 10.4 °F - 6.8 °F 85% 29.65 in 10.0 mi Calm Calm - N/A   Clear
8:54 AM 14.0 °F 8.2 °F 10.4 °F 86% 29.65 in 10.0 mi SW 3.5 mph - N/A   Clear
9:14 AM 15.8 °F - 10.4 °F 79% 29.65 in 10.0 mi Calm Calm - N/A   Clear
9:34 AM 14.0 °F - 10.4 °F 86% 29.65 in 10.0 mi Calm Calm - N/A   Clear
9:54 AM 15.8 °F - 10.4 °F 79% 29.65 in 10.0 mi Calm Calm - N/A   Clear
10:13 AM 15.8 °F - 10.4 °F 79% 29.66 in 10.0 mi Calm Calm - N/A   Clear
10:34 AM 17.6 °F - 12.2 °F 79% 29.67 in 10.0 mi Calm Calm - N/A   Clear
10:54 AM 17.6 °F 12.3 °F 12.2 °F 79% 29.68 in 10.0 mi SSE 3.5 mph - N/A   Clear
11:14 AM 17.6 °F - 12.2 °F 79% 29.67 in 10.0 mi Calm Calm - N/A   Clear
11:34 AM 19.4 °F - 14.0 °F 80% 29.67 in 10.0 mi Calm Calm - N/A   Clear
11:54 AM 23.0 °F 17.0 °F 15.8 °F 74% 29.67 in 10.0 mi East 4.6 mph - N/A   Clear
12:14 PM 23.0 °F 17.0 °F 15.8 °F 74% 29.66 in 10.0 mi East 4.6 mph - N/A   Clear
12:34 PM 23.0 °F 17.0 °F 15.8 °F 74% 29.66 in 10.0 mi ENE 4.6 mph - N/A   Clear
12:54 PM 23.0 °F 17.0 °F 15.8 °F 74% 29.65 in 10.0 mi ENE 4.6 mph - N/A   Clear
1:14 PM 23.0 °F 15.8 °F 15.8 °F 74% 29.65 in 10.0 mi East 5.8 mph - N/A   Clear
1:34 PM 23.0 °F 15.8 °F 15.8 °F 74% 29.65 in 10.0 mi East 5.8 mph - N/A   Clear
1:54 PM 23.0 °F 17.0 °F 15.8 °F 74% 29.66 in 10.0 mi ENE 4.6 mph - N/A   Clear
2:14 PM 21.2 °F 11.7 °F 15.8 °F 80% 29.65 in 10.0 mi ENE 8.1 mph - N/A   Clear
2:34 PM 23.0 °F 13.1 °F 15.8 °F 74% 29.65 in 10.0 mi ENE 9.2 mph - N/A   Clear
2:53 PM 23.0 °F 13.1 °F 15.8 °F 74% 29.65 in 10.0 mi ENE 9.2 mph - N/A   Clear
3:14 PM 23.0 °F 12.4 °F 15.8 °F 74% 29.65 in 10.0 mi ENE 10.4 mph - N/A   Clear
3:34 PM 21.2 °F 10.1 °F 15.8 °F 80% 29.64 in 10.0 mi ENE 10.4 mph - N/A   Clear
3:53 PM 21.2 °F 10.1 °F 15.8 °F 80% 29.65 in 10.0 mi ENE 10.4 mph - N/A   Clear
4:14 PM 21.2 °F 8.9 °F 15.8 °F 80% 29.63 in 10.0 mi ENE 12.7 mph - N/A   Clear
4:34 PM 19.4 °F 7.9 °F 15.8 °F 86% 29.64 in 10.0 mi ENE 10.4 mph - N/A   Clear
4:54 PM 19.4 °F 7.9 °F 15.8 °F 86% 29.63 in 10.0 mi ENE 10.4 mph - N/A   Clear
5:14 PM 19.4 °F 7.2 °F 14.0 °F 80% 29.63 in 10.0 mi ENE 11.5 mph - N/A   Clear
5:34 PM 19.4 °F 7.9 °F 14.0 °F 80% 29.63 in 10.0 mi ENE 10.4 mph - N/A   Clear
5:54 PM 19.4 °F 7.9 °F 14.0 °F 80% 29.63 in 10.0 mi ENE 10.4 mph - N/A   Clear
6:14 PM 19.4 °F 7.9 °F 14.0 °F 80% 29.63 in 10.0 mi ENE 10.4 mph - N/A   Clear
6:34 PM 19.4 °F 8.6 °F 15.8 °F 86% 29.63 in 10.0 mi East 9.2 mph - N/A   Clear
6:54 PM 21.2 °F 9.5 °F 15.8 °F 80% 29.63 in 10.0 mi ENE 11.5 mph - N/A   Scattered Clouds
7:14 PM 21.2 °F 8.9 °F 17.6 °F 86% 29.62 in 10.0 mi ENE 12.7 mph - N/A   Scattered Clouds
7:34 PM 21.2 °F 8.3 °F 17.6 °F 86% 29.62 in 10.0 mi ENE 13.8 mph - N/A   Scattered Clouds
7:54 PM 23.0 °F 10.1 °F 17.6 °F 80% 29.61 in 10.0 mi ENE 15.0 mph 20.7 mph N/A   Scattered Clouds
8:14 PM 23.0 °F 11.7 °F 17.6 °F 80% 29.61 in 10.0 mi NE 11.5 mph - N/A   Clear
8:33 PM 23.0 °F 9.6 °F 17.6 °F 80% 29.59 in 10.0 mi NE 16.1 mph - N/A   Clear
8:54 PM 23.0 °F 9.6 °F 17.6 °F 80% 29.60 in 10.0 mi NE 16.1 mph - N/A   Scattered Clouds
9:14 PM 23.0 °F 9.2 °F 19.4 °F 86% 29.60 in 10.0 mi NE 17.3 mph - N/A   Mostly Cloudy
9:34 PM 24.8 °F 12.4 °F 19.4 °F 80% 29.60 in 10.0 mi NE 15.0 mph - N/A   Overcast
9:54 PM 24.8 °F 13.4 °F 19.4 °F 80% 29.59 in 10.0 mi ENE 12.7 mph - N/A   Overcast
10:14 PM 24.8 °F 12.9 °F 19.4 °F 80% 29.58 in 10.0 mi NE 13.8 mph - N/A   Overcast
10:34 PM 24.8 °F 12.9 °F 21.2 °F 86% 29.57 in 10.0 mi ENE 13.8 mph - N/A   Overcast
10:54 PM 26.6 °F 15.7 °F 21.2 °F 80% 29.56 in 10.0 mi ENE 12.7 mph - N/A   Overcast
11:14 PM 26.6 °F 15.7 °F 21.2 °F 80% 29.56 in 10.0 mi ENE 12.7 mph - N/A   Overcast
11:34 PM 26.6 °F 15.2 °F 23.0 °F 86% 29.55 in 10.0 mi ENE 13.8 mph - N/A   Overcast
11:54 PM 26.6 °F 16.2 °F 23.0 °F 86% 29.55 in 10.0 mi ENE 11.5 mph - N/A   Overcast